• In Uzbekistan
  • List of Countries
  • For 7 days
  • Water Temperature
  • Satellite Maps
  • Weather Map
  • Weather Widgets
  • user-avatar
    Login

    Hourly Weather Sidi Bu-l-Abbas

    Today, 24 January, Wednesday

    Time Temperature Precipitation Wind Pressure Humidity
    00:00 +10°C° 0 mm 0 mps 727 mmHg 71%
    01:00 +9°C° 0 mm 0 mps 727 mmHg 71%
    02:00 +9°C° 0 mm 0 mps 727 mmHg 71%
    03:00 +9°C° 0 mm 0 mps 726 mmHg 72%
    04:00 +9°C° 0 mm 0 mps 726 mmHg 73%
    05:00 +8°C° 0 mm 0 mps 726 mmHg 74%
    06:00 +8°C° 0 mm 0 mps 726 mmHg 76%
    07:00 +10°C° 0 mm 0 mps 726 mmHg 66%
    08:00 +13°C° 0 mm 0 mps 727 mmHg 56%
    09:00 +16°C° 0 mm 1 mps 727 mmHg 46%
    10:00 +18°C° 0 mm 1 mps 727 mmHg 41%
    11:00 +19°C° 0 mm 1 mps 728 mmHg 36%
    12:00 +19°C° 0 mm 0 mps 728 mmHg 32%
    13:00 +21°C° 0 mm 1 mps 727 mmHg 31%
    14:00 +21°C° 0 mm 1 mps 727 mmHg 31%
    15:00 +21°C° 0 mm 2 mps 726 mmHg 31%
    16:00 +19°C° 0 mm 2 mps 726 mmHg 38%
    17:00 +17°C° 0 mm 2 mps 726 mmHg 45%
    18:00 +15°C° 0 mm 2 mps 726 mmHg 53%
    19:00 +14°C° 0 mm 1 mps 726 mmHg 55%
    20:00 +13°C° 0 mm 1 mps 726 mmHg 58%
    21:00 +11°C° 0 mm 0 mps 726 mmHg 60%
    22:00 +11°C° 0 mm 0 mps 726 mmHg 59%
    23:00 +12°C° 0 mm 1 mps 726 mmHg 58%

    Tomorrow, 25 January, Thursday

    Time Temperature Precipitation Wind Pressure Humidity
    00:00 +12°C° 0 mm 1 mps 726 mmHg 57%
    01:00 +11°C° 0 mm 1 mps 725 mmHg 57%
    02:00 +11°C° 0 mm 1 mps 725 mmHg 58%
    03:00 +11°C° 0 mm 1 mps 725 mmHg 58%
    04:00 +11°C° 0 mm 1 mps 724 mmHg 57%
    05:00 +10°C° 0 mm 1 mps 724 mmHg 57%
    06:00 +9°C° 0 mm 2 mps 724 mmHg 57%
    07:00 +12°C° 0 mm 2 mps 725 mmHg 53%
    08:00 +14°C° 0 mm 2 mps 725 mmHg 49%
    09:00 +15°C° 0 mm 2 mps 725 mmHg 45%
    10:00 +17°C° 0 mm 3 mps 725 mmHg 41%
    11:00 +18°C° 0 mm 4 mps 725 mmHg 37%
    12:00 +20°C° 0 mm 4 mps 725 mmHg 33%
    13:00 +20°C° 0 mm 4 mps 724 mmHg 34%
    14:00 +20°C° 0 mm 4 mps 724 mmHg 35%
    15:00 +20°C° 0 mm 5 mps 723 mmHg 36%
    16:00 +18°C° 0 mm 4 mps 723 mmHg 46%
    17:00 +16°C° 0 mm 3 mps 722 mmHg 55%
    18:00 +14°C° 0 mm 2 mps 722 mmHg 65%
    19:00 +13°C° 0 mm 2 mps 722 mmHg 68%
    20:00 +12°C° 0 mm 3 mps 722 mmHg 72%
    21:00 +11°C° 0 mm 3 mps 723 mmHg 75%
    22:00 +11°C° 0 mm 3 mps 723 mmHg 77%
    23:00 +11°C° 0 mm 3 mps 723 mmHg 79%

    Day after tomorrow, 26 January, Friday

    Time Temperature Precipitation Wind Pressure Humidity
    00:00 +10°C° 0 mm 3 mps 722 mmHg 82%
    01:00 +10°C° 0.1 mm 4 mps 723 mmHg 82%
    02:00 +9°C° 0.1 mm 5 mps 723 mmHg 83%
    03:00 +9°C° 0.1 mm 5 mps 723 mmHg 84%
    04:00 +9°C° 0.3 mm 6 mps 723 mmHg 84%
    05:00 +9°C° 0.3 mm 7 mps 723 mmHg 84%
    06:00 +9°C° 0.3 mm 8 mps 723 mmHg 85%
    07:00 +7°C° 0.5 mm 8 mps 724 mmHg 79%
    08:00 +7°C° 0.5 mm 8 mps 724 mmHg 73%
    09:00 +7°C° 0.5 mm 8 mps 725 mmHg 68%
    10:00 +8°C° 0.2 mm 7 mps 725 mmHg 63%
    11:00 +9°C° 0.2 mm 7 mps 726 mmHg 59%
    12:00 +9°C° 0.2 mm 7 mps 726 mmHg 55%
    13:00 +9°C° 0.2 mm 7 mps 726 mmHg 54%
    14:00 +9°C° 0.2 mm 6 mps 726 mmHg 53%
    15:00 +9°C° 0.2 mm 6 mps 726 mmHg 51%
    16:00 +8°C° 0.1 mm 5 mps 726 mmHg 57%
    17:00 +7°C° 0.1 mm 5 mps 726 mmHg 63%
    18:00 +7°C° 0.1 mm 4 mps 726 mmHg 68%
    19:00 +6°C° 0.3 mm 4 mps 727 mmHg 70%
    20:00 +6°C° 0.3 mm 4 mps 727 mmHg 72%
    21:00 +6°C° 0.3 mm 4 mps 727 mmHg 74%
    22:00 +5°C° 0.3 mm 4 mps 727 mmHg 75%
    23:00 +5°C° 0.3 mm 4 mps 727 mmHg 76%

    27 January, Saturday

    Time Temperature Precipitation Wind Pressure Humidity
    00:00 +5°C° 0.3 mm 4 mps 727 mmHg 76%
    01:00 +5°C° 0.2 mm 4 mps 727 mmHg 77%
    02:00 +5°C° 0.2 mm 4 mps 727 mmHg 77%
    03:00 +4°C° 0.2 mm 4 mps 727 mmHg 78%
    04:00 +5°C° 0.1 mm 4 mps 727 mmHg 77%
    05:00 +5°C° 0.1 mm 4 mps 726 mmHg 75%
    06:00 +5°C° 0.1 mm 5 mps 726 mmHg 74%
    07:00 +6°C° 0.1 mm 5 mps 727 mmHg 69%
    08:00 +5°C° 0.1 mm 6 mps 727 mmHg 64%
    09:00 +6°C° 0.1 mm 7 mps 727 mmHg 59%
    10:00 +7°C° 0.2 mm 8 mps 727 mmHg 58%
    11:00 +7°C° 0.2 mm 8 mps 727 mmHg 57%
    12:00 +7°C° 0.2 mm 9 mps 727 mmHg 55%
    13:00 +7°C° 0.2 mm 8 mps 726 mmHg 54%
    14:00 +7°C° 0.2 mm 8 mps 726 mmHg 54%
    15:00 +7°C° 0.2 mm 8 mps 725 mmHg 53%
    16:00 +8°C° 0.1 mm 6 mps 725 mmHg 56%
    17:00 +7°C° 0.1 mm 5 mps 725 mmHg 59%
    18:00 +7°C° 0.1 mm 3 mps 725 mmHg 62%
    19:00 +7°C° 0.3 mm 3 mps 725 mmHg 66%
    20:00 +5°C° 0.3 mm 3 mps 725 mmHg 69%
    21:00 +5°C° 0.3 mm 3 mps 725 mmHg 73%
    22:00 +5°C° 1 mm 3 mps 725 mmHg 75%
    23:00 +4°C° 1 mm 3 mps 725 mmHg 77%

    28 January, Sunday

    Time Temperature Precipitation Wind Pressure Humidity
    00:00 +4°C° 1 mm 3 mps 724 mmHg 79%
    01:00 +5°C° 0.9 mm 2 mps 724 mmHg 80%
    02:00 +5°C° 0.9 mm 2 mps 724 mmHg 82%
    03:00 +5°C° 0.9 mm 2 mps 723 mmHg 84%
    04:00 +4°C° 0.1 mm 2 mps 724 mmHg 84%
    05:00 +4°C° 0.1 mm 2 mps 724 mmHg 83%
    06:00 +4°C° 0.1 mm 2 mps 724 mmHg 83%
    07:00 +5°C° 0 mm 2 mps 725 mmHg 78%
    08:00 +5°C° 0 mm 2 mps 725 mmHg 73%
    09:00 +6°C° 0 mm 2 mps 726 mmHg 68%
    10:00 +7°C° 0 mm 2 mps 726 mmHg 62%
    11:00 +8°C° 0 mm 2 mps 726 mmHg 57%
    12:00 +9°C° 0 mm 3 mps 726 mmHg 52%
    13:00 +9°C° 0 mm 3 mps 725 mmHg 52%
    14:00 +9°C° 0 mm 3 mps 725 mmHg 53%
    15:00 +9°C° 0 mm 3 mps 724 mmHg 53%
    16:00 +8°C° 0.1 mm 2 mps 724 mmHg 61%
    17:00 +7°C° 0.1 mm 2 mps 724 mmHg 68%
    18:00 +7°C° 0.1 mm 2 mps 724 mmHg 75%
    19:00 +7°C° 0.1 mm 1 mps 725 mmHg 78%
    20:00 +6°C° 0.1 mm 1 mps 725 mmHg 80%
    21:00 +6°C° 0.1 mm 1 mps 725 mmHg 82%
    22:00 +6°C° 0.1 mm 1 mps 725 mmHg 82%
    23:00 +5°C° 0.1 mm 1 mps 725 mmHg 81%

    29 January, Monday

    Time Temperature Precipitation Wind Pressure Humidity
    00:00 +5°C° 0.1 mm 1 mps 725 mmHg 80%
    01:00 +5°C° 0 mm 1 mps 725 mmHg 79%
    02:00 +5°C° 0 mm 1 mps 725 mmHg 78%
    03:00 +5°C° 0 mm 1 mps 725 mmHg 77%
    04:00 +4°C° 0 mm 1 mps 725 mmHg 76%
    05:00 +3°C° 0 mm 2 mps 725 mmHg 75%
    06:00 +3°C° 0 mm 2 mps 725 mmHg 74%
    07:00 +4°C° 0 mm 2 mps 726 mmHg 69%
    08:00 +6°C° 0 mm 2 mps 726 mmHg 64%
    09:00 +7°C° 0 mm 2 mps 727 mmHg 59%
    10:00 +8°C° 0 mm 2 mps 727 mmHg 54%
    11:00 +9°C° 0 mm 2 mps 727 mmHg 50%
    12:00 +10°C° 0 mm 2 mps 727 mmHg 45%
    13:00 +11°C° 0 mm 3 mps 726 mmHg 44%
    14:00 +11°C° 0 mm 4 mps 726 mmHg 43%
    15:00 +11°C° 0 mm 4 mps 726 mmHg 42%
    16:00 +10°C° 0 mm 4 mps 726 mmHg 47%
    17:00 +9°C° 0 mm 3 mps 726 mmHg 53%
    18:00 +8°C° 0 mm 3 mps 726 mmHg 59%
    19:00 +8°C° 0 mm 2 mps 726 mmHg 62%
    20:00 +8°C° 0 mm 1 mps 726 mmHg 66%
    21:00 +8°C° 0 mm 1 mps 726 mmHg 70%
    22:00 +8°C° 0.1 mm 1 mps 726 mmHg 70%
    23:00 +7°C° 0.1 mm 1 mps 726 mmHg 71%
    Show more